Location: Arbon
(43.0005°N, 0.7472°E)
Time: 20:43:34
(UTC+00:00)

Altair - Pass Details

Date: 02 December 2020
Orbit: 1501 x 1682 km, 47.2° (Epoch: 26 January)

Event Time Altitude Azimuth Distance (km) Brightness Sun altitude
Rises 01:35:00 0° 295° (WNW) 4,647 - -59.2°
Reaches altitude 10° 01:38:03 10° 292° (WNW) 3,657 - -58.7°
Maximum altitude 01:47:01 62° 215° (SW) 1,669 - -57.3°
Drops below altitude 10° 01:56:04 10° 138° (SE) 3,688 - -55.9°
Exits shadow 01:58:14 - 135° (SE) 4,380 10.0 -55.5°
Sets 01:59:11 0° 135° (SE) 4,688 10.2 -55.4°
